ARIANE 5 DEB, 43382

Orbit data source: Space-Track

ARIANE 5 DEB, 43382 is space debris in HEO originally from a launch on Thu, 12 Jun 2008 UTC launched from the French Guiana (FRGUI). Debris objects in space refer to the collection of defunct objects orbiting the Earth. Examples of debris include non-operational satellites, rocket bodies, and fragments generated from explosions, collisions, or faulty payload assembly.

Loading next visibility...
Identifier
43382, 2008-030E
Orbit
HEO
Country
Flag of FRFR
Related business
Manufacturer
Thales Alenia
Mission
Spacecraft
Bus & Motor
Unknown
Mass
Unknown
Launch date (UTC)
2008-06-12 (18 years ago)
Launch vehicle
Unknown
Launch site
French Guiana (FRGUI)
Object type
Payload
Rocket body
Debris
Shape & HBR
Unknown shape, 1.8 m
Radar Cross Section
Large (>1 m²)

Expand to show TLE details & history
Last TLE update: 2 days ago

TLE from 2 days ago
0 ARIANE 5 DEB
1 43382U 08030E   26171.03159027  .00003778  00000-0  12661-2 0  9998
2 43382   2.2004 358.6949 7055191 274.1953  14.9735  2.56103426113466
Epoch: 2026-06-20T00:45Z
TLE epoch observation values (Epoch: 2026-06-20T00:45:29.399Z)
Latitude
-0.00013°
Longitude
79.05242°
Altitude
4,371.866 km
Speed
7.516 km/s
True Right ascension
23h 54m 42s
True Declination
0° 00' 00"
Sunlit
Object was in daylight at epoch
Visualization orbit readout
Latitude
Unknown
Longitude
Unknown
Altitude
Unknown
Speed
Unknown
Apparent Right ascension
Unknown
Apparent Declination
Unknown
Sunlit
N/A
Visualization observer readout
Local Sidereal Time
21:35:44
Azimuth
Unknown
Elevation
Unknown
Doppler factor
Unknown
Orbital elements
Apogee altitude
32,118.288 km
Perigee altitude
268.791 km
Semi-major axis
22,571.676 km
Eccentricity
0.70552
Inclination
2.2004°
RAAN
358.6949°
Arg. of periapsis
274.1953°
True anomaly
85.53207°
Mean anomaly
14.9735°
Eccentric anomaly
42.04611°
Mean motion
0.64003 °/min
Orbital period
562.48 mins
BSTAR
0.0012661
Loading maneuver chart data...
Computing Atmospheric mass density...
Loading historical data...
Loading historical data...
Loading historical data...
Loading historical data...
Loading historical data...
Loading historical data...
Loading historical data...

Documentation

Showing up to 5 results
|